This is the latest recevied weather packets stored in our database for station/object K5NWZ. If no packets are shown the sender has not sent any weather packets the latest 1 day(s).
| Time | Temp. | Humidity | Pressure | Rain* | Wind** | Luminosity | Snow |
|---|---|---|---|---|---|---|---|
| 1778023409 | 0.56° C | 96% | 1022.8 hPa | 0 mm | 0.45 m/s, 309° | 28 W/m² | - |
| 1778023105 | 0° C | 96% | 1023 hPa | 0 mm | 0.89 m/s, 301° | 30 W/m² | - |
| 1778022804 | 0° C | 96% | 1023 hPa | 0 mm | 0.89 m/s, 298° | 30 W/m² | - |
| 1778022502 | 0° C | 96% | 1022.8 hPa | 0 mm | 0 m/s | 30 W/m² | - |
| 1778022198 | 0° C | 96% | 1022.7 hPa | 0 mm | 0 m/s | 28 W/m² | - |
| 1778021889 | 0° C | 96% | 1023 hPa | 0 mm | 0.45 m/s, 316° | 29 W/m² | - |
| 1778021587 | 0° C | 96% | 1023.1 hPa | 1.78 mm | 0.45 m/s, 314° | 33 W/m² | - |
| 1778021282 | 0.56° C | 96% | 1023 hPa | 1.78 mm | 0.45 m/s, 289° | 39 W/m² | - |
| 1778020980 | 0.56° C | 96% | 1022.7 hPa | 0 mm | 0.45 m/s, 304° | 44 W/m² | - |
| 1778020677 | 0.56° C | 96% | 1023 hPa | 0 mm | 0.89 m/s, 314° | 42 W/m² | - |
| 1778020374 | 0.56° C | 96% | 1022.6 hPa | 0 mm | 1.34 m/s, 345° | 48 W/m² | - |
| 1778020069 | 0.56° C | 96% | 1023 hPa | 0 mm | 0.45 m/s, 306° | 46 W/m² | - |
| 1778019766 | 0.56° C | 96% | 1023 hPa | 1.27 mm | 0.89 m/s, 331° | 43 W/m² | - |
| 1778019463 | 0.56° C | 96% | 1022.6 hPa | 1.27 mm | 0.89 m/s, 296° | 66 W/m² | - |
| 1778019160 | 0.56° C | 96% | 1022.5 hPa | 1.78 mm | 0.89 m/s, 322° | 85 W/m² | - |
| 1778018856 | 0.56° C | 96% | 1023 hPa | 1.78 mm | 0.89 m/s, 347° | 79 W/m² | - |
| 1778018554 | 0.56° C | 96% | 1022.5 hPa | 0 mm | 0.89 m/s, 315° | 83 W/m² | - |
| 1778018252 | 0.56° C | 96% | 1022.6 hPa | 1.78 mm | 0.45 m/s, 316° | 90 W/m² | - |
| 1778017949 | 0.56° C | 96% | 1022.8 hPa | 1.78 mm | 0.89 m/s, 286° | 81 W/m² | - |
| 1778017647 | 0.56° C | 96% | 1022.6 hPa | 0 mm | 0.89 m/s, 289° | 118 W/m² | - |
| 1778017344 | 0.56° C | 96% | 1022.5 hPa | 1.27 mm | 1.79 m/s, 314° | 100 W/m² | - |
| 1778017041 | 0.56° C | 96% | 1022.5 hPa | 1.27 mm | 1.34 m/s, 326° | 109 W/m² | - |
| 1778016738 | 0.56° C | 96% | 1022.7 hPa | 0 mm | 0.89 m/s, 310° | 123 W/m² | - |
| 1778016434 | 0.56° C | 96% | 1022.6 hPa | 1.78 mm | 1.79 m/s, 294° | 121 W/m² | - |
| 1778016132 | 0.56° C | 96% | 1022.4 hPa | 1.78 mm | 1.34 m/s, 320° | 117 W/m² | - |
* Rain latest hour (hover to see other rain measurements)
** Current wind speed in m/s (hover to see current wind gust speed)